This demonstration page uses our WeatherBlox Daily Observations layout. Learn more.

Hourly Observations for May 25, 2019

Temp ( °F °C ) Dew Point ( °F °C ) Humidity (%) Winds ( mph kmh ) Pressure ( in mb ) Visibility ( mi km ) Precip ( " mm )
12:54 am 00:54 Clear 61 16.1 56 13.3 84 84 VRB 3 6 29.83 1010 10 16.09344 0 0
1:54 am 01:54 Clear 59 15 55 12.8 87 87 Calm 29.83 1010 10 16.09344 0 0
2:07 am 02:07 Mostly Clear 57 13.9 54 12.2 90 90 Calm 29.85 1011 10 16.09344 0 0
2:52 am 02:52 Mostly Cloudy 61 16 57 14 88 88 SSW 8 13 29.83 1010 10 16.09344 0 0
2:53 am 02:53 Mostly Cloudy 61 16.1 58 14.4 90 90 SSW 8 13 29.83 1010 10 16.09344 0 0
3:07 am 03:07 Cloudy with Mist and Fog 61 16.1 60 15.6 97 97 S 5 7 29.83 1010 1.75 2.816352 0 0
3:44 am 03:44 Mostly Cloudy with Mist and Fog 62 16.7 61 16.1 96 96 SW 5 7 29.83 1010 0.75 1.207008 0 0
3:54 am 03:54 Mostly Cloudy with Fog 63 17.2 62 16.7 97 97 SW 3 6 29.83 1010 0.5 0.804672 0 0
4:37 am 04:37 Cloudy with Mist and Fog 64 17.8 62 16.7 93 93 Calm 29.85 1011 1.25 2.01168 0 0
4:49 am 04:49 Cloudy with Mist and Fog 64 18 63 17 94 94 Calm 29.85 1011 2.5 4.02336 0 0
4:54 am 04:54 Cloudy with Mist and Fog 64 17.8 63 17.2 96 96 Calm 29.83 1010 3 4.828032 0 0
5:35 am 05:35 Cloudy with Mist and Fog 65 18.3 64 17.8 97 97 Calm 29.85 1011 6 9.656064 0 0
5:54 am 05:54 Cloudy with Mist and Fog 64 17.8 63 17.2 96 96 SSW 3 6 29.83 1010 5 8.04672 0 0
6:09 am 06:09 Cloudy with Mist and Fog 64 17.8 63 17.2 96 96 Calm 29.85 1011 6 9.656064 0 0
6:32 am 06:32 Cloudy with Mist and Fog 65 18.3 64 17.8 97 97 Calm 29.88 1012 5 8.04672 0 0
6:50 am 06:50 Cloudy with Mist and Fog 64 18 64 18 100 100 S 5 7 29.88 1012 5 8.04672 0 0
6:54 am 06:54 Cloudy with Mist and Fog 65 18.3 64 17.8 97 97 SSW 6 9 29.88 1012 4 6.437376 0 0
7:05 am 07:05 Cloudy with Mist and Fog 67 19.4 65 18.3 93 93 S 6 9 29.88 1012 6 9.656064 0 0
7:20 am 07:20 Cloudy 67 19.4 65 18.3 93 93 Calm 29.91 1013 7 11.265408 0 0
7:54 am 07:54 Cloudy 68 20 65 18.3 90 90 Calm 29.91 1013 8 12.874752 0 0
8:24 am 08:24 Cloudy 68 20 65 18.3 90 90 Calm 29.91 1013 8 12.874752 0 0
8:37 am 08:37 Cloudy 69 20.6 65 18.3 87 87 Calm 29.91 1013 10 16.09344 0 0
8:54 am 08:54 Cloudy with Light Rain 66 18.9 63 17.2 90 90 NNW 8 13 29.91 1013 4 6.437376 0.001 0.001
9:23 am 09:23 Cloudy 66 18.9 63 17.2 90 90 N 5 7 29.94 1014 7 11.265408 0.001 0.001
9:50 am 09:50 Cloudy with Light Rain 64 18 63 17 94 94 N 7 11 29.94 1014 5 8.04672 0.001 0.001
9:54 am 09:54 Cloudy with Light Rain 66 18.9 63 17.2 90 90 N 8 13 29.91 1013 6 9.656064 0.001 0.001
10:03 am 10:03 Cloudy 67 19.4 63 17.2 87 87 N 9 15 29.91 1013 9 14.484096 0.001 0.001
10:12 am 10:12 Cloudy 68 20 64 17.8 87 87 N 6 9 29.94 1014 10 16.09344 0.001 0.001
10:19 am 10:19 Cloudy 68 20 63 17.2 84 84 N 6 9 29.94 1014 9 14.484096 0.001 0.001
10:47 am 10:47 Mostly Cloudy 70 21.1 64 17.8 82 82 N 7 11 29.91 1013 10 16.09344 0.001 0.001
10:54 am 10:54 Mostly Cloudy 71 21.7 65 18.3 81 81 N 5 7 29.91 1013 10 16.09344 0.001 0.001
11:54 am 11:54 Cloudy 72 22.2 64 17.8 76 76 NNW 7 11 29.94 1014 10 16.09344 0 0
12:54 pm 12:54 Cloudy 76 24.4 63 17.2 64 64 Calm 29.91 1013 10 16.09344 0 0
1:07 pm 13:07 Cloudy 75 23.9 63 17.2 66 66 Calm 29.91 1013 10 16.09344 0 0
1:54 pm 13:54 Cloudy 74 23.3 64 17.8 71 71 SSE 3 6 29.91 1013 10 16.09344 0.001 0.001
2:54 pm 14:54 Cloudy 75 23.9 64 17.8 69 69 NNE 5 7 29.91 1013 10 16.09344 0 0
3:12 pm 15:12 Cloudy 76 24.4 65 18.3 69 69 NE 5 7 29.91 1013 10 16.09344 0 0
3:54 pm 15:54 Mostly Cloudy 79 26.1 63 17.2 58 58 VRB 5 7 29.91 1013 10 16.09344 0 0
4:54 pm 16:54 Mostly Sunny 80 26.7 63 17.2 56 56 N 7 11 29.91 1013 10 16.09344 0 0
5:54 pm 17:54 Mostly Cloudy 80 26.7 63 17.2 56 56 NE 9 15 29.91 1013 10 16.09344 0 0
6:54 pm 18:54 Mostly Sunny 77 25 60 15.6 56 56 NNE 12 19 29.88 1012 10 16.09344 0 0
7:54 pm 19:54 Mostly Sunny 73 22.8 59 15 62 62 NNE 8 13 29.91 1013 10 16.09344 0 0
8:54 pm 20:54 Clear 71 21.7 58 14.4 63 63 NE 8 13 29.91 1013 10 16.09344 0 0
9:54 pm 21:54 Mostly Cloudy 70 21.1 57 13.9 64 64 E 7 11 29.97 1015 10 16.09344 0 0
10:08 pm 22:08 Cloudy 70 21.1 57 13.9 64 64 NNE 7 11 29.97 1015 10 16.09344 0 0
10:33 pm 22:33 Partly Cloudy 69 20.6 56 13.3 63 63 NE 10 17 29.97 1015 10 16.09344 0 0
10:54 pm 22:54 Partly Cloudy 68 20 56 13.3 65 65 NE 9 15 29.94 1014 10 16.09344 0 0
11:44 pm 23:44 Mostly Cloudy 68 20 55 12.8 63 63 NNE 13 20 29.94 1014 10 16.09344 0 0
11:54 pm 23:54 Cloudy 68 20 54 12.2 61 61 NNE 10 17 29.94 1014 10 16.09344 0 0

Powered by AerisWeather